Regional Weather Roundup
Issued by NWS

Home | Current Version | Previous Version | Text Only | Print | Product List | Glossary Off
Versions: 1 2 3 4 5 6 7 8 9 10 11 12 13 14 15 16 17 18 19 20 21 22 23 24 25 26 27 28 29 30 31 32 33 34 35 36 37 38 39 40 41 42 43 44 45 46 47 48 49 50

283
ASUS43 KIND 282259
RWRIN

WEATHER ROUNDUP FOR INDIANA
NATIONAL WEATHER SERVICE INDIANAPOLIS IN
700 PM EDT SAT MAY 28 2016

NOTE: "FAIR" INDICATES FEW OR NO CLOUDS BELOW 12,000 FEET WITH NO
SIGNIFICANT WEATHER AND/OR OBSTRUCTIONS TO VISIBILITY.

* - STATION DOES NOT REPORT WEATHER SUCH AS PRECIPITATION OR FOG.

+ - STATION NOT QUALITY CONTROLLED BY THE NATIONAL WEATHER SERVICE.
    USE DATA WITH CAUTION...ESPECIALLY DEWPOINT AND RELATIVE
    HUMIDITY OBSERVATIONS.

INZ001>003-010>013-019-020-290000-
NORTHWEST INDIANA

CITY           SKY/WX    TMP DP  RH WIND       PRES   REMARKS
GARY /AIRPORT/ MOSUNNY   82  70  65 S13G26    29.91F
RENSSELAER +   SUNNY     82  59  44 S17G23    29.95S

$$

LMZ046-743>745-290000-
SOUTHERN LAKE MICHIGAN

STATION/POSITION TIME  TEMP    WIND        PRES    WAVE
                       AIR SEA DIR/SP/G            HT
                 (UTC) (F)     (DEG/KT/KT) (MB)    (FT)
BURNS HARBOR     2226   81     190/ 17/ 26 1013.2F
MICHIGAN CITY    2200   80     170/ 14/ 19   N/A
5NW MICH CITY    2200   72 57  200/ 12/ 17   N/A     2

$$

INZ004-005-014>016-021>024-290000-
NORTH CENTRAL INDIANA

CITY           SKY/WX    TMP DP  RH WIND       PRES   REMARKS
GOSHEN         CLOUDY    82  58  43 SW17      29.97S
SOUTH BEND     MOSUNNY   84  61  45 S13       29.95F

$$

INZ006>009-017-018-025>027-290000-
NORTHEAST INDIANA

CITY           SKY/WX    TMP DP  RH WIND       PRES   REMARKS
ANGOLA *+        N/A     84  63  48 S12       29.99R
FORT WAYNE     LGT RAIN  81  62  52 S20G26    30.01R

$$

INZ028-029-035-036-043>045-051>053-290000-
WEST CENTRAL INDIANA

CITY           SKY/WX    TMP DP  RH WIND       PRES   REMARKS
CRAWFORDSVL +  PTSUNNY   78  65  64 S18G25    30.00S
GREENCASTLE +  CLOUDY    75  70  83 S12G18    30.02S
LAFAYETTE      MOSUNNY   80  62  54 S13G20    29.96F
TERRE HAUTE    SUNNY     79  65  62 S18       29.99S

$$

INZ030>032-037>040-046>048-054>057-064-065-290000-
CENTRAL INDIANA

CITY           SKY/WX    TMP DP  RH WIND       PRES   REMARKS
COLUMBUS       MOSUNNY   73  72  94 S9        30.05S
INDIANAPOLIS   CLOUDY    77  63  61 S14       30.02R
-EAGLE CREEK   CLOUDY    78  64  61 S13G18    30.03R
KOKOMO *+      CLOUDY    75  61  60 SW9       30.01S
SHELBYVILLE    LGT RAIN  76  66  71 S13       30.05R

$$

INZ033-034-041-042-049-050-058-059-290000-
EAST CENTRAL INDIANA

CITY           SKY/WX    TMP DP  RH WIND       PRES   REMARKS
MUNCIE         CLOUDY    74  64  71 S8        30.05S

$$

INZ060-061-067>069-081>083-085>088-290000-
SOUTHWEST INDIANA

CITY           SKY/WX    TMP DP  RH WIND       PRES   REMARKS
EVANSVILLE     CLOUDY    82  65  56 S10G21    30.02S
HUNTINGBURG *+ MOSUNNY   81  66  61 S14       30.03F

$$

INZ062-063-066-070>080-084-089>092-290000-
SOUTH CENTRAL AND SOUTHEAST INDIANA

CITY           SKY/WX    TMP DP  RH WIND       PRES   REMARKS
BLOOMINGTON    CLOUDY    73  68  84 S5        30.04S
MADISON *+     MOSUNNY   77  68  73 S6        30.09R
SEYMOUR +      PTSUNNY   77  66  69 S8        30.05S

$$





USA.gov is the U.S. government's official web portal to all federal, state and local government web resources and services.